QPF
0.00 0.00 0.00 0.00 0.00 0.00 0.00 0.00 0.00 0.00 0.00 0.00 0.00 0.00 0.00 0.00 0.00 0.00 0.00 0.00 0.00 0.00 0.00 0.00 0.00 0.00 0.00 0.00 0.00 0.00 0.00 0.00 0.00 0.00 0.00 0.00 0.00 0.00 0.00 0.00 0.00 0.00 0.00
0.00 0.00 0.00 0.00 0.00 0.00 0.00 0.00 0.00 0.00 0.00 0.00 0.00 0.00 0.00 0.00 0.00 0.00 0.00 0.00 0.00 0.00 0.00 0.00 0.00 0.00 0.00 0.00 0.00 0.00 0.00 0.00 0.00 0.00 0.00 0.00 0.00 0.00 0.00 0.00 0.00 0.00 0.00
0.00 0.00 0.00 0.00 0.00 0.00 0.00 0.00 0.00 0.00 0.00 0.00 0.00 0.00 0.00 0.00 0.00 0.00 0.00 0.00 0.00 0.00 0.00 0.00 0.00 0.00 0.00 0.00 0.00 0.00 0.00 0.00 0.00 0.00 0.00 0.00 0.00 0.00 0.00 0.00 0.00 0.00 0.00
0.00 0.00 0.00 0.00 0.00 0.00 0.00 0.00 0.00 0.00 0.00 0.00 0.00 0.00 0.00 0.00 0.00 0.00 0.00 0.00 0.00 0.00 0.00 0.00 0.00 0.00 0.00 0.00 0.00 0.00 0.00 0.00 0.00 0.00 0.00 0.00 0.00 0.00 0.00 0.00 0.00 0.00 0.00
0.00 0.00 0.00 0.00 0.00 0.00 0.00 0.00 0.00 0.00 0.00 0.00 0.00 0.00 0.00 0.00 0.00 0.00 0.00 0.00 0.00 0.00 0.00 0.00 0.00 0.00 0.00 0.00 0.00 0.00 0.00 0.00 0.00 0.00 0.00 0.00 0.00 0.00 0.00 0.00 0.00 0.00 0.00
0.00 0.00 0.00 0.00 0.00 0.00 0.00 0.00 0.00 0.00 0.00 0.00 0.00 0.00 0.00 0.00 0.00 0.00 0.00 0.00 0.00 0.00 0.00 0.00 0.00 0.00 0.00 0.00 0.00 0.00 0.00 0.00 0.00 0.00 0.00 0.00 0.00 0.00 0.00 0.00 0.00 0.01 0.01
0.00 0.00 0.00 0.00 0.00 0.00 0.00 0.00 0.00 0.00 0.00 0.00 0.00 0.00 0.00 0.00 0.00 0.00 0.00 0.00 0.00 0.00 0.00 0.00 0.00 0.00 0.00 0.00 0.00 0.00 0.00 0.00 0.00 0.00 0.01 0.00 0.00 0.00 0.01 0.02 0.02 0.02 0.01
0.00 0.00 0.00 0.00 0.00 0.00 0.00 0.00 0.00 0.00 0.00 0.00 0.00 0.00 0.00 0.00 0.00 0.00 0.00 0.00 0.00 0.00 0.00 0.00 0.00 0.00 0.00 0.00 0.00 0.00 0.00 0.00 0.00 0.00 0.00 0.01 0.01 0.01 0.03 0.04 0.03 0.02 0.01
0.00 0.00 0.00 0.00 0.00 0.00 0.00 0.00 0.00 0.00 0.00 0.00 0.00 0.00 0.00 0.00 0.00 0.00 0.00 0.00 0.00 0.00 0.00 0.00 0.00 0.00 0.00 0.00 0.00 0.00 0.00 0.00 0.00 0.00 0.00 0.01 0.01 0.01 0.01 0.01 0.01 0.01 0.01
0.00 0.00 0.00 0.00 0.00 0.00 0.00 0.00 0.00 0.00 0.00 0.00 0.00 0.00 0.00 0.00 0.00 0.00 0.00 0.00 0.00 0.00 0.00 0.00 0.00 0.00 0.00 0.00 0.00 0.01 0.01 0.00 0.00 0.00 0.00 0.00 0.00 0.00 0.00 0.00 0.00 0.01 0.02
0.00 0.00 0.00 0.00 0.00 0.00 0.00 0.00 0.00 0.00 0.00 0.00 0.00 0.00 0.00 0.00 0.00 0.00 0.00 0.00 0.00 0.00 0.00 0.00 0.00 0.00 0.00 0.00 0.01 0.01 0.01 0.01 0.01 0.00 0.00 0.00 0.00 0.00 0.00 0.00 0.00 0.00 0.01
0.01 0.00 0.00 0.00 0.00 0.00 0.00 0.00 0.00 0.00 0.00 0.00 0.00 0.00 0.00 0.00 0.00 0.00 0.00 0.00 0.00 0.00 0.00 0.00 0.00 0.00 0.00 0.01 0.01 0.01 0.01 0.01 0.01 0.00 0.00 0.00 0.00 0.00 0.00 0.00 0.00 0.00 0.00
0.01 0.00 0.00 0.00 0.00 0.00 0.00 0.00 0.00 0.00 0.00 0.00 0.00 0.00 0.00 0.00 0.00 0.00 0.00 0.00 0.00 0.00 0.00 0.00 0.00 0.00 0.01 0.01 0.01 0.01 0.01 0.01 0.00 0.00 0.00 0.00 0.00 0.00 0.00 0.00 0.00 0.00 0.00
0.00 0.00 0.00 0.00 0.00 0.00 0.00 0.00 0.00 0.00 0.00 0.00 0.00 0.00 0.00 0.00 0.00 0.00 0.00 0.00 0.00 0.00 0.00 0.00 0.00 0.01 0.02 0.02 0.01 0.01 0.01 0.01 0.00 0.00 0.00 0.00 0.00 0.00 0.00 0.00 0.00 0.00 0.00
0.00 0.00 0.00 0.00 0.00 0.00 0.00 0.00 0.00 0.00 0.00 0.00 0.00 0.00 0.00 0.00 0.00 0.00 0.00 0.00 0.00 0.00 0.00 0.01 0.01 0.01 0.01 0.01 0.01 0.01 0.01 0.01 0.00 0.00 0.00 0.00 0.00 0.00 0.00 0.00 0.00 0.00 0.00
0.00 0.00 0.00 0.00 0.00 0.00 0.00 0.00 0.00 0.00 0.00 0.00 0.00 0.00 0.00 0.00 0.00 0.00 0.00 0.00 0.01 0.01 0.03 0.02 0.01 0.01 0.01 0.01 0.01 0.01 0.01 0.01 0.00 0.00 0.00 0.00 0.00 0.00 0.00 0.00 0.00 0.00 0.00
0.00 0.00 0.00 0.00 0.00 0.00 0.00 0.00 0.00 0.00 0.00 0.00 0.00 0.00 0.01 0.01 0.01 0.01 0.01 0.02 0.02 0.04 0.06 0.03 0.01 0.01 0.01 0.01 0.01 0.01 0.01 0.01 0.00 0.00 0.00 0.00 0.00 0.00 0.00 0.00 0.00 0.00 0.00
0.00 0.00 0.00 0.00 0.00 0.00 0.00 0.00 0.00 0.00 0.00 0.00 0.00 0.00 0.01 0.02 0.02 0.02 0.03 0.04 0.03 0.03 0.03 0.02 0.02 0.02 0.02 0.02 0.02 0.01 0.01 0.01 0.00 0.00 0.00 0.00 0.00 0.00 0.00 0.00 0.00 0.00 0.00
0.00 0.00 0.00 0.00 0.00 0.00 0.00 0.00 0.00 0.00 0.00 0.00 0.00 0.00 0.01 0.01 0.01 0.02 0.02 0.03 0.02 0.01 0.01 0.01 0.02 0.02 0.02 0.02 0.02 0.01 0.01 0.00 0.00 0.00 0.00 0.00 0.00 0.00 0.00 0.00 0.00 0.00 0.00
0.00 0.00 0.00 0.00 0.00 0.00 0.00 0.00 0.00 0.00 0.00 0.00 0.00 0.01 0.01 0.01 0.01 0.01 0.01 0.01 0.01 0.01 0.01 0.01 0.01 0.01 0.01 0.01 0.01 0.01 0.01 0.00 0.00 0.00 0.00 0.00 0.00 0.00 0.00 0.00 0.00 0.00 0.00
0.00 0.00 0.00 0.00 0.00 0.00 0.00 0.00 0.00 0.00 0.01 0.01 0.01 0.01 0.01 0.01 0.01 0.01 0.00 0.00 0.00 0.00 0.00 0.01 0.01 0.01 0.01 0.01 0.01 0.01 0.01 0.00 0.00 0.00 0.00 0.00 0.00 0.00 0.00 0.00 0.00 0.00 0.00
0.00 0.00 0.00 0.00 0.00 0.00 0.00 0.01 0.01 0.01 0.01 0.01 0.01 0.01 0.01 0.01 0.00 0.00 0.00 0.00 0.00 0.00 0.00 0.00 0.00 0.00 0.01 0.01 0.01 0.01 0.01 0.00 0.00 0.00 0.00 0.00 0.00 0.00 0.00 0.00 0.00 0.00 0.00
0.00 0.00 0.00 0.00 0.00 0.01 0.01 0.01 0.01 0.01 0.01 0.01 0.01 0.00 0.00 0.00 0.00 0.00 0.00 0.00 0.00 0.00 0.00 0.00 0.00 0.00 0.00 0.01 0.01 0.01 0.01 0.00 0.00 0.00 0.00 0.00 0.00 0.00 0.00 0.00 0.00 0.00 0.00
0.00 0.00 0.00 0.00 0.01 0.01 0.01 0.01 0.01 0.00 0.00 0.00 0.00 0.00 0.00 0.00 0.00 0.00 0.00 0.00 0.00 0.00 0.00 0.00 0.00 0.00 0.00 0.01 0.01 0.00 0.00 0.00 0.00 0.00 0.00 0.00 0.00 0.00 0.00 0.00 0.00 0.00 0.00
0.00 0.00 0.00 0.00 0.00 0.00 0.00 0.00 0.00 0.00 0.00 0.00 0.00 0.00 0.00 0.00 0.00 0.00 0.00 0.00 0.00 0.00 0.00 0.00 0.00 0.00 0.00 0.00 0.00 0.00 0.00 0.00 0.00 0.00 0.00 0.00 0.00 0.00 0.00 0.00 0.00 0.00 0.00
0.00 0.00 0.00 0.00 0.00 0.00 0.00 0.00 0.00 0.00 0.00 0.00 0.00 0.00 0.00 0.00 0.00 0.00 0.00 0.00 0.00 0.00 0.00 0.00 0.00 0.00 0.00 0.00 0.00 0.00 0.00 0.00 0.00 0.00 0.00 0.00 0.00 0.00 0.00 0.00 0.00 0.00 0.00
MSLP
1022.17 1022.93 1023.75 1024.57 1025.37 1026.13 1026.83 1027.49 1028.14 1028.78 1029.45 1030.12 1030.79 1031.43 1032.01 1032.51 1032.92 1033.23 1033.48 1033.68 1033.89 1034.13 1034.41 1034.74 1035.09 1035.43 1035.71 1035.90 1035.98 1035.92 1035.74 1035.46 1035.11 1034.72 1034.32 1033.91 1033.50 1033.07 1032.60 1032.07 1031.48 1030.81 1030.08
1021.93 1022.69 1023.50 1024.31 1025.10 1025.84 1026.55 1027.23 1027.89 1028.57 1029.25 1029.94 1030.63 1031.28 1031.86 1032.37 1032.78 1033.10 1033.35 1033.56 1033.76 1033.99 1034.25 1034.55 1034.87 1035.18 1035.44 1035.62 1035.70 1035.66 1035.51 1035.26 1034.95 1034.59 1034.20 1033.79 1033.35 1032.88 1032.36 1031.77 1031.12 1030.40 1029.63
1021.58 1022.37 1023.19 1024.01 1024.79 1025.54 1026.26 1026.94 1027.62 1028.30 1028.98 1029.68 1030.35 1030.99 1031.56 1032.06 1032.46 1032.77 1033.02 1033.23 1033.44 1033.66 1033.90 1034.19 1034.48 1034.77 1035.02 1035.20 1035.29 1035.27 1035.17 1034.97 1034.70 1034.38 1034.01 1033.60 1033.15 1032.64 1032.07 1031.43 1030.73 1029.96 1029.16
1021.10 1021.94 1022.79 1023.63 1024.43 1025.19 1025.91 1026.60 1027.28 1027.96 1028.64 1029.32 1029.98 1030.59 1031.13 1031.60 1031.99 1032.29 1032.54 1032.75 1032.95 1033.16 1033.41 1033.67 1033.96 1034.23 1034.47 1034.66 1034.76 1034.79 1034.72 1034.58 1034.36 1034.08 1033.74 1033.34 1032.88 1032.36 1031.76 1031.08 1030.34 1029.55 1028.72
1020.48 1021.39 1022.29 1023.16 1023.98 1024.75 1025.48 1026.18 1026.87 1027.54 1028.22 1028.88 1029.51 1030.10 1030.62 1031.06 1031.43 1031.72 1031.96 1032.17 1032.37 1032.58 1032.82 1033.08 1033.35 1033.61 1033.85 1034.03 1034.16 1034.21 1034.19 1034.09 1033.92 1033.69 1033.39 1033.02 1032.57 1032.05 1031.44 1030.76 1030.01 1029.20 1028.36
1019.76 1020.74 1021.69 1022.58 1023.42 1024.21 1024.96 1025.67 1026.37 1027.05 1027.73 1028.38 1029.00 1029.56 1030.06 1030.49 1030.84 1031.13 1031.36 1031.57 1031.77 1031.98 1032.21 1032.46 1032.71 1032.96 1033.18 1033.37 1033.50 1033.57 1033.58 1033.52 1033.40 1033.21 1032.96 1032.62 1032.22 1031.72 1031.14 1030.48 1029.75 1028.96 1028.13
1018.99 1020.03 1021.02 1021.94 1022.79 1023.60 1024.36 1025.09 1025.80 1026.50 1027.19 1027.85 1028.46 1029.02 1029.51 1029.92 1030.27 1030.55 1030.79 1031.00 1031.20 1031.40 1031.62 1031.85 1032.08 1032.30 1032.50 1032.68 1032.80 1032.88 1032.91 1032.88 1032.80 1032.66 1032.46 1032.19 1031.83 1031.39 1030.87 1030.26 1029.58 1028.82 1028.02
1018.25 1019.32 1020.33 1021.26 1022.12 1022.93 1023.71 1024.47 1025.20 1025.93 1026.63 1027.30 1027.92 1028.48 1028.97 1029.39 1029.73 1030.02 1030.25 1030.46 1030.66 1030.85 1031.05 1031.25 1031.45 1031.64 1031.82 1031.96 1032.07 1032.15 1032.19 1032.19 1032.15 1032.06 1031.92 1031.72 1031.44 1031.08 1030.63 1030.10 1029.49 1028.79 1028.04
1017.60 1018.68 1019.67 1020.59 1021.46 1022.27 1023.06 1023.84 1024.60 1025.35 1026.07 1026.76 1027.39 1027.95 1028.44 1028.86 1029.20 1029.48 1029.71 1029.92 1030.10 1030.28 1030.46 1030.63 1030.80 1030.95 1031.09 1031.21 1031.31 1031.38 1031.43 1031.46 1031.46 1031.43 1031.36 1031.24 1031.05 1030.78 1030.42 1029.98 1029.44 1028.82 1028.12
1017.08 1018.12 1019.08 1019.98 1020.83 1021.65 1022.45 1023.24 1024.02 1024.78 1025.52 1026.21 1026.84 1027.40 1027.88 1028.28 1028.61 1028.88 1029.10 1029.30 1029.47 1029.64 1029.79 1029.94 1030.08 1030.20 1030.31 1030.41 1030.50 1030.58 1030.65 1030.71 1030.76 1030.80 1030.80 1030.76 1030.66 1030.48 1030.22 1029.86 1029.40 1028.85 1028.20
1016.68 1017.66 1018.58 1019.44 1020.27 1021.08 1021.88 1022.68 1023.47 1024.23 1024.97 1025.64 1026.25 1026.78 1027.23 1027.61 1027.91 1028.16 1028.37 1028.55 1028.71 1028.86 1029.00 1029.13 1029.25 1029.36 1029.46 1029.56 1029.65 1029.74 1029.85 1029.96 1030.07 1030.18 1030.26 1030.30 1030.28 1030.19 1030.00 1029.71 1029.32 1028.81 1028.21
1016.39 1017.30 1018.16 1018.98 1019.78 1020.58 1021.38 1022.17 1022.95 1023.70 1024.41 1025.05 1025.61 1026.09 1026.49 1026.82 1027.08 1027.30 1027.49 1027.65 1027.81 1027.95 1028.09 1028.22 1028.34 1028.45 1028.56 1028.66 1028.78 1028.91 1029.06 1029.23 1029.41 1029.59 1029.75 1029.86 1029.92 1029.89 1029.77 1029.52 1029.16 1028.69 1028.10
1016.19 1017.02 1017.81 1018.59 1019.37 1020.15 1020.94 1021.72 1022.48 1023.19 1023.85 1024.42 1024.92 1025.33 1025.66 1025.93 1026.15 1026.33 1026.49 1026.65 1026.80 1026.95 1027.10 1027.24 1027.38 1027.51 1027.64 1027.78 1027.94 1028.12 1028.32 1028.55 1028.80 1029.05 1029.28 1029.46 1029.58 1029.60 1029.50 1029.29 1028.94 1028.46 1027.87
1016.07 1016.80 1017.54 1018.28 1019.04 1019.81 1020.58 1021.34 1022.06 1022.72 1023.31 1023.82 1024.23 1024.56 1024.82 1025.02 1025.19 1025.34 1025.49 1025.64 1025.79 1025.96 1026.13 1026.30 1026.47 1026.63 1026.80 1026.98 1027.18 1027.41 1027.67 1027.96 1028.27 1028.58 1028.87 1029.11 1029.26 1029.31 1029.23 1029.01 1028.66 1028.16 1027.55
1016.02 1016.68 1017.36 1018.07 1018.81 1019.56 1020.31 1021.04 1021.72 1022.33 1022.85 1023.27 1023.61 1023.86 1024.05 1024.20 1024.33 1024.46 1024.60 1024.76 1024.94 1025.13 1025.33 1025.53 1025.72 1025.92 1026.11 1026.32 1026.56 1026.83 1027.13 1027.47 1027.83 1028.19 1028.52 1028.79 1028.97 1029.03 1028.95 1028.73 1028.35 1027.83 1027.18
1016.09 1016.67 1017.30 1017.98 1018.70 1019.44 1020.17 1020.87 1021.51 1022.06 1022.52 1022.88 1023.14 1023.34 1023.48 1023.60 1023.71 1023.84 1023.99 1024.18 1024.38 1024.60 1024.82 1025.04 1025.25 1025.46 1025.66 1025.88 1026.13 1026.41 1026.74 1027.10 1027.48 1027.87 1028.22 1028.52 1028.71 1028.78 1028.70 1028.46 1028.06 1027.51 1026.82
1016.32 1016.84 1017.42 1018.07 1018.77 1019.48 1020.19 1020.86 1021.46 1021.96 1022.38 1022.69 1022.91 1023.08 1023.20 1023.31 1023.44 1023.58 1023.76 1023.97 1024.20 1024.44 1024.67 1024.89 1025.09 1025.28 1025.46 1025.66 1025.88 1026.15 1026.46 1026.81 1027.20 1027.59 1027.96 1028.26 1028.46 1028.54 1028.46 1028.21 1027.80 1027.24 1026.54
1016.76 1017.21 1017.74 1018.36 1019.02 1019.71 1020.39 1021.02 1021.59 1022.06 1022.45 1022.74 1022.95 1023.11 1023.25 1023.38 1023.54 1023.71 1023.92 1024.16 1024.40 1024.64 1024.86 1025.06 1025.22 1025.36 1025.49 1025.62 1025.79 1026.00 1026.26 1026.58 1026.94 1027.32 1027.68 1027.99 1028.20 1028.29 1028.22 1027.99 1027.58 1027.03 1026.33
1017.42 1017.80 1018.29 1018.85 1019.48 1020.13 1020.77 1021.37 1021.91 1022.36 1022.73 1023.02 1023.24 1023.42 1023.59 1023.77 1023.96 1024.18 1024.42 1024.67 1024.91 1025.13 1025.31 1025.45 1025.54 1025.60 1025.64 1025.69 1025.77 1025.90 1026.10 1026.36 1026.68 1027.03 1027.38 1027.68 1027.90 1028.00 1027.96 1027.75 1027.38 1026.84 1026.17
1018.28 1018.61 1019.04 1019.55 1020.12 1020.72 1021.31 1021.87 1022.38 1022.81 1023.17 1023.47 1023.72 1023.94 1024.15 1024.37 1024.60 1024.85 1025.10 1025.35 1025.57 1025.75 1025.87 1025.93 1025.93 1025.88 1025.82 1025.76 1025.74 1025.78 1025.90 1026.09 1026.36 1026.67 1027.00 1027.30 1027.53 1027.65 1027.63 1027.46 1027.13 1026.64 1026.01
1019.31 1019.57 1019.94 1020.38 1020.89 1021.42 1021.96 1022.48 1022.94 1023.36 1023.72 1024.03 1024.30 1024.55 1024.80 1025.05 1025.30 1025.56 1025.81 1026.03 1026.20 1026.31 1026.35 1026.32 1026.22 1026.07 1025.90 1025.74 1025.62 1025.57 1025.61 1025.74 1025.96 1026.23 1026.53 1026.82 1027.06 1027.20 1027.21 1027.08 1026.79 1026.36 1025.78
1020.40 1020.61 1020.92 1021.29 1021.73 1022.19 1022.66 1023.12 1023.54 1023.93 1024.28 1024.58 1024.87 1025.14 1025.40 1025.66 1025.91 1026.15 1026.36 1026.53 1026.64 1026.67 1026.62 1026.49 1026.30 1026.05 1025.79 1025.55 1025.36 1025.24 1025.22 1025.30 1025.47 1025.71 1025.98 1026.26 1026.49 1026.64 1026.67 1026.58 1026.34 1025.96 1025.45
1021.47 1021.64 1021.88 1022.19 1022.55 1022.94 1023.34 1023.73 1024.10 1024.45 1024.76 1025.05 1025.32 1025.58 1025.83 1026.06 1026.28 1026.48 1026.63 1026.73 1026.76 1026.71 1026.58 1026.37 1026.09 1025.78 1025.47 1025.18 1024.94 1024.79 1024.73 1024.77 1024.91 1025.12 1025.37 1025.62 1025.83 1025.98 1026.02 1025.94 1025.74 1025.41 1024.96
1022.42 1022.55 1022.75 1023.00 1023.29 1023.60 1023.93 1024.25 1024.56 1024.85 1025.13 1025.38 1025.61 1025.83 1026.03 1026.22 1026.38 1026.50 1026.58 1026.60 1026.54 1026.41 1026.21 1025.94 1025.63 1025.29 1024.95 1024.64 1024.40 1024.23 1024.16 1024.19 1024.30 1024.48 1024.70 1024.91 1025.10 1025.22 1025.26 1025.19 1025.01 1024.72 1024.33
1023.19 1023.30 1023.46 1023.66 1023.89 1024.13 1024.39 1024.65 1024.89 1025.12 1025.34 1025.53 1025.71 1025.86 1026.00 1026.11 1026.19 1026.23 1026.22 1026.16 1026.03 1025.84 1025.59 1025.29 1024.96 1024.62 1024.29 1024.00 1023.77 1023.62 1023.55 1023.57 1023.66 1023.81 1023.99 1024.16 1024.31 1024.40 1024.41 1024.34 1024.17 1023.92 1023.59
1023.75 1023.85 1023.99 1024.14 1024.32 1024.51 1024.70 1024.89 1025.08 1025.24 1025.39 1025.52 1025.62 1025.71 1025.76 1025.79 1025.78 1025.74 1025.65 1025.51 1025.32 1025.08 1024.80 1024.50 1024.17 1023.85 1023.55 1023.30 1023.10 1022.97 1022.91 1022.92 1022.99 1023.10 1023.23 1023.36 1023.45 1023.50 1023.49 1023.40 1023.25 1023.02 1022.74
Thickness
5564 5558 5551 5543 5537 5530 5523 5515 5507 5499 5492 5483 5474 5465 5456 5447 5438 5429 5419 5410 5401 5391 5381 5371 5360 5348 5336 5324 5312 5300 5289 5279 5275 5281 5275 5265 5255 5246 5240 5232 5227 5223 5221
5556 5549 5542 5534 5527 5520 5512 5504 5496 5488 5479 5470 5461 5451 5442 5432 5423 5414 5404 5394 5385 5374 5364 5353 5342 5330 5318 5306 5294 5283 5271 5261 5253 5254 5256 5247 5238 5228 5223 5218 5213 5207 5204
5547 5540 5532 5526 5519 5511 5502 5493 5484 5475 5466 5456 5447 5437 5427 5418 5408 5399 5390 5380 5369 5359 5348 5336 5325 5314 5302 5291 5279 5268 5256 5246 5236 5231 5232 5228 5222 5213 5207 5204 5199 5193 5189
5538 5532 5525 5519 5511 5502 5492 5482 5473 5463 5453 5443 5434 5424 5414 5404 5394 5384 5375 5364 5354 5343 5332 5321 5310 5299 5288 5277 5266 5255 5244 5234 5224 5216 5213 5210 5204 5198 5190 5186 5187 5182 5177
5530 5524 5518 5509 5499 5489 5480 5470 5460 5450 5440 5430 5419 5409 5399 5389 5379 5370 5361 5350 5338 5327 5316 5306 5296 5285 5275 5264 5254 5244 5234 5223 5213 5204 5200 5196 5191 5183 5176 5170 5165 5166 5166
5523 5516 5506 5496 5486 5477 5467 5457 5446 5436 5426 5415 5405 5395 5385 5375 5366 5357 5347 5336 5325 5313 5303 5292 5282 5271 5262 5253 5244 5235 5225 5213 5201 5193 5190 5183 5177 5168 5161 5155 5149 5147 5151
5513 5503 5494 5485 5475 5465 5454 5443 5434 5424 5413 5402 5392 5381 5372 5362 5353 5343 5333 5322 5312 5301 5290 5279 5270 5260 5250 5241 5233 5225 5215 5205 5195 5187 5179 5172 5163 5156 5148 5145 5138 5131 5130
5501 5491 5482 5473 5462 5451 5441 5432 5422 5411 5400 5390 5380 5369 5359 5349 5339 5329 5319 5310 5299 5289 5278 5268 5258 5249 5238 5229 5222 5215 5206 5197 5187 5178 5171 5162 5153 5144 5136 5130 5123 5118 5120
5491 5482 5472 5462 5450 5439 5430 5421 5410 5398 5387 5378 5367 5356 5346 5336 5324 5315 5305 5296 5287 5278 5267 5257 5247 5238 5230 5220 5214 5207 5199 5190 5180 5172 5163 5154 5145 5136 5126 5120 5112 5103 5107
5483 5473 5460 5449 5440 5430 5420 5408 5397 5386 5376 5365 5354 5344 5333 5323 5311 5301 5290 5282 5274 5266 5257 5248 5238 5229 5220 5211 5203 5196 5188 5182 5172 5164 5154 5145 5135 5126 5117 5109 5101 5094 5092
5470 5457 5446 5437 5429 5419 5407 5395 5384 5372 5360 5350 5340 5330 5320 5310 5299 5288 5278 5269 5261 5253 5246 5238 5230 5220 5212 5204 5195 5188 5180 5172 5163 5153 5144 5135 5126 5118 5110 5101 5093 5087 5084
5454 5443 5434 5424 5414 5403 5392 5380 5369 5357 5345 5335 5324 5314 5305 5296 5286 5276 5266 5258 5250 5241 5236 5229 5220 5210 5202 5195 5187 5179 5171 5162 5150 5140 5131 5123 5115 5109 5102 5095 5088 5082 5079
5438 5429 5419 5408 5398 5389 5378 5366 5352 5341 5331 5321 5310 5302 5294 5283 5273 5264 5255 5246 5238 5231 5226 5218 5209 5200 5192 5185 5177 5168 5158 5148 5137 5126 5118 5111 5105 5098 5092 5087 5083 5079 5077
5422 5412 5402 5392 5381 5371 5361 5351 5339 5328 5317 5307 5297 5289 5280 5269 5259 5250 5241 5233 5225 5218 5211 5206 5199 5191 5181 5174 5164 5155 5144 5134 5124 5114 5106 5100 5093 5087 5081 5077 5074 5073 5074
5403 5392 5383 5374 5364 5353 5343 5334 5325 5315 5306 5295 5285 5274 5263 5255 5248 5240 5230 5221 5212 5204 5196 5189 5182 5174 5166 5158 5148 5138 5128 5118 5108 5100 5092 5086 5080 5076 5071 5067 5064 5062 5061
5381 5371 5362 5352 5342 5333 5322 5310 5305 5295 5287 5279 5270 5259 5250 5243 5235 5228 5221 5213 5204 5194 5184 5177 5169 5161 5153 5144 5134 5124 5113 5103 5095 5087 5079 5072 5068 5063 5060 5056 5054 5052 5053
5362 5351 5341 5332 5322 5312 5302 5293 5282 5274 5267 5260 5252 5244 5236 5228 5221 5214 5207 5199 5191 5182 5172 5165 5156 5147 5139 5130 5120 5110 5100 5090 5080 5072 5066 5059 5054 5051 5047 5046 5045 5044 5045
5338 5329 5321 5312 5302 5293 5283 5274 5264 5254 5244 5236 5230 5225 5218 5210 5203 5196 5189 5181 5172 5163 5154 5145 5137 5129 5121 5112 5103 5093 5083 5074 5065 5057 5051 5045 5041 5038 5036 5035 5035 5035 5037
5312 5304 5296 5288 5279 5270 5261 5251 5242 5233 5224 5215 5206 5200 5195 5189 5183 5175 5168 5158 5149 5141 5133 5125 5116 5108 5100 5092 5083 5074 5065 5057 5049 5043 5037 5033 5030 5027 5027 5027 5028 5029 5030
5285 5279 5271 5262 5254 5245 5237 5228 5220 5211 5203 5194 5186 5180 5173 5166 5159 5152 5144 5136 5128 5121 5113 5105 5097 5089 5081 5073 5065 5056 5047 5040 5035 5030 5026 5022 5020 5019 5020 5020 5021 5022 5024
5258 5252 5245 5237 5229 5221 5214 5206 5198 5190 5182 5173 5166 5160 5157 5147 5139 5132 5124 5117 5110 5102 5095 5088 5080 5072 5064 5056 5048 5040 5033 5027 5022 5018 5015 5013 5012 5012 5013 5015 5016 5017 5018
5231 5225 5218 5211 5204 5197 5189 5182 5175 5168 5160 5152 5145 5139 5137 5127 5120 5112 5106 5099 5092 5086 5079 5072 5064 5057 5049 5042 5034 5027 5020 5015 5010 5007 5006 5006 5005 5006 5007 5009 5011 5013 5014
5206 5199 5192 5186 5179 5172 5165 5158 5151 5144 5138 5131 5125 5119 5113 5106 5100 5094 5088 5082 5075 5069 5063 5057 5050 5043 5036 5029 5022 5016 5010 5006 5002 5000 4999 4999 5001 5002 5003 5005 5007 5009 5011
5179 5173 5167 5160 5153 5147 5141 5134 5128 5123 5116 5110 5104 5099 5093 5088 5082 5076 5071 5065 5060 5054 5048 5043 5037 5031 5025 5019 5012 5007 5002 4999 4996 4995 4996 4996 4998 5000 5002 5003 5005 5007 5010
5153 5148 5142 5136 5129 5124 5118 5113 5107 5102 5096 5091 5085 5080 5075 5070 5065 5060 5055 5050 5045 5040 5035 5031 5026 5021 5016 5010 5005 5000 4997 4995 4993 4994 4994 4996 4997 4999 5001 5002 5004 5007 5010
5128 5123 5118 5112 5107 5102 5097 5092 5087 5082 5077 5072 5067 5062 5058 5053 5049 5044 5040 5035 5032 5028 5024 5020 5016 5012 5008 5004 5000 4997 4995 4994 4994 4995 4996 4997 4998 4999 5001 5002 5005 5008 5011